TimeCST,TemperatureF,Dew PointF,Humidity,Sea Level PressureIn,VisibilityMPH,Wind Direction,Wind SpeedMPH,Gust SpeedMPH,PrecipitationIn,Events,Conditions,WindDirDegrees,DateUTC
12:53 AM,37.0,26.1,65,30.16,10.0,North,3.5,-,N/A,,Clear,350,2012-12-11 06:53:00
1:53 AM,34.0,26.1,73,30.15,10.0,North,6.9,-,N/A,,Clear,350,2012-12-11 07:53:00
2:53 AM,35.1,25.0,67,30.14,10.0,North,5.8,-,N/A,,Clear,360,2012-12-11 08:53:00
3:53 AM,33.1,25.0,72,30.15,10.0,NNW,5.8,-,N/A,,Clear,340,2012-12-11 09:53:00
4:53 AM,30.9,25.0,79,30.15,10.0,North,3.5,-,N/A,,Clear,350,2012-12-11 10:53:00
5:53 AM,30.9,25.0,79,30.17,10.0,Calm,Calm,-,N/A,,Clear,0,2012-12-11 11:53:00
6:53 AM,28.9,25.0,85,30.18,10.0,NNW,4.6,-,N/A,,Clear,340,2012-12-11 12:53:00
7:53 AM,33.1,27.0,78,30.20,10.0,North,4.6,-,N/A,,Clear,350,2012-12-11 13:53:00
8:53 AM,39.0,27.0,62,30.21,10.0,North,9.2,-,N/A,,Clear,10,2012-12-11 14:53:00
9:53 AM,46.0,25.0,44,30.20,10.0,NE,13.8,-,N/A,,Clear,40,2012-12-11 15:53:00
10:53 AM,48.9,23.0,36,30.19,10.0,NE,12.7,-,N/A,,Clear,40,2012-12-11 16:53:00
12:53 PM,50.0,23.0,35,30.17,10.0,Calm,Calm,-,N/A,,Clear,0,2012-12-11 18:53:00
1:53 PM,53.1,19.9,27,30.15,10.0,NNE,6.9,-,N/A,,Clear,30,2012-12-11 19:53:00
2:53 PM,53.1,21.9,30,30.14,10.0,Calm,Calm,-,N/A,,Clear,0,2012-12-11 20:53:00
3:53 PM,53.1,21.9,30,30.13,10.0,North,8.1,-,N/A,,Clear,360,2012-12-11 21:53:00
4:53 PM,51.1,21.9,32,30.15,10.0,North,8.1,-,N/A,,Clear,350,2012-12-11 22:53:00
5:53 PM,48.9,24.1,38,30.16,10.0,North,4.6,-,N/A,,Clear,10,2012-12-11 23:53:00
6:53 PM,46.0,28.0,50,30.18,10.0,Calm,Calm,-,N/A,,Clear,0,2012-12-12 00:53:00
7:53 PM,45.0,28.0,52,30.20,10.0,North,5.8,-,N/A,,Clear,360,2012-12-12 01:53:00
8:53 PM,45.0,28.9,53,30.22,10.0,North,4.6,-,N/A,,Clear,10,2012-12-12 02:53:00